Flag for Norway Weather past 2 weeks in Kirkenes, Norway

Now
53 °F

Cool.


Feels Like: 53 °F
Forecast: 52 / 68 °F
Wind: 2 mph from North

Location: Kirkenes Lufthavn

Current Time: Aug 2, 2014 at 2:29:17 AM

Latest Report: Aug 2, 2014 at 1:00 AM


Visibility: N/A

Pressure: 29.78 "Hg

Humidity: 95%

Dew point: 52 °F

Location of KirkenesLocation

Historic Weather in Kirkenes — Graph

°F

Kirkenes temperature yesterday

Maximum temperature yesterday: 68 °F (at 3:00 PM)
Minimum temperature yesterday: 54 °F (at 11:00 PM)
Average temperature yesterday: 60 °F

Past Weeks' High & Low Weather Summary

 TemperatureHumidityPressure
High73 °F (Jul 27, 3:00 PM)99% (Jul 21, 3:00 AM)30.33 "Hg (Jul 21, 3:00 AM)
Low47 °F (Jul 29, 6:00 AM)47% (Jul 25, 3:00 PM)29.35 "Hg (Jul 31, 10:00 PM)
Average58 °F79%30.02 "Hg
* Reported Jul 18 12:00 Noon — Aug 2 1:00 AM, Kirkenes, Weather by CustomWeather, © 2014

Note: Actual official high and low records may vary slightly from our data, if they occured in-between our weather recording intervals... More about our weather records

Advertising

Kirkenes weather history for previous 24 hours

 ConditionsComfort  
Time TempWeatherWind HumidityBarometerVisibility
1:00 AM
Aug 2
53 °FCool.2 mph95%29.78 "HgN/A
12:00 AM54 °FCool.1 mph95%29.76 "HgN/A
11:00 PM
Aug 1
54 °FCool.No wind95%29.75 "HgN/A
10:00 PM55 °FCool.1 mph95%29.74 "HgN/A
9:00 PM57 °FCool.2 mph96%29.72 "HgN/A
8:00 PM58 °FCool.2 mph91%29.70 "HgN/A
7:00 PM59 °FCool.2 mph91%29.67 "HgN/A
6:00 PM62 °FCool.2 mph67%29.64 "HgN/A
5:00 PM63 °FMild.3 mph68%29.62 "HgN/A
4:00 PM67 °FMild.5 mph66%29.59 "HgN/A
3:00 PM68 °FMild.7 mph59%29.57 "HgN/A
2:00 PM65 °FMild.6 mph70%29.57 "HgN/A
1:00 PM67 °FMild.3 mph69%29.55 "HgN/A
12:00 PM64 °FMild.3 mph78%29.54 "HgN/A
11:00 AM61 °FCool.2 mph89%29.54 "HgN/A
10:00 AM60 °FCool.1 mph91%29.50 "HgN/A
9:00 AM58 °FCool.No wind95%29.50 "HgN/A
8:00 AM57 °FCool.1 mph94%29.47 "HgN/A
7:00 AM59 °FCool.1 mph92%29.47 "HgN/A
6:00 AM59 °FCool.2 mph92%29.44 "HgN/A
5:00 AM57 °FCool.1 mph93%29.44 "HgN/A
4:00 AM58 °FCool.No wind95%29.44 "HgN/A
3:00 AM58 °FCool.2 mph93%29.41 "HgN/A
2:00 AM59 °FCool.2 mph90%29.41 "HgN/A
Weather by CustomWeather, © 2014

See weather overviewHow to use our weather pages